,,Stat6,,Stat2,,Stat8,,Stat9,,Stat10,,Wind1,,Wind1,
time,status,PA1M_AVG,status,PR1M_SUM,status,RH1M_AVG,status,SR1M_AVG,status,TA1M_AVG,status,W1dAve1m,status,W1sAve1m,
2006-04-17, 00:00:00,VALID,915.622,VALID,0,VALID,91.9116,VALID,-0.20377,VALID,19.3622,VALID,121,VALID,1.7526,
2006-04-17, 00:01:00,VALID,915.632,VALID,0,VALID,92.3185,VALID,-0.169808,VALID,19.0186,VALID,120,VALID,1.54023,
2006-04-17, 00:02:00,VALID,915.646,VALID,0,VALID,92.8996,VALID,-0.118866,VALID,19.304,VALID,120,VALID,1.60347,
2006-04-17, 00:03:00,VALID,915.659,VALID,0,VALID,93.482,VALID,-0.152827,VALID,18.7784,VALID,122,VALID,1.60801,
2006-04-17, 00:04:00,VALID,915.68,VALID,0,VALID,94.0911,VALID,-0.186789,VALID,18.9439,VALID,124,VALID,1.38523,
2006-04-17, 00:05:00,VALID,915.693,VALID,0,VALID,94.2895,VALID,-0.20377,VALID,18.8769,VALID,126,VALID,1.27976,
2006-04-17, 00:06:00,VALID,915.695,VALID,0,VALID,94.0657,VALID,-0.271693,VALID,19.1586,VALID,126,VALID,1.37816,
2006-04-17, 00:07:00,VALID,915.707,VALID,0,VALID,92.3261,VALID,-0.288674,VALID,18.7592,VALID,126,VALID,1.51926,
2006-04-17, 00:08:00,VALID,915.698,VALID,0,VALID,91.3533,VALID,-0.271693,VALID,19.2551,VALID,121,VALID,1.06197,
2006-04-17, 00:09:00,VALID,915.71,VALID,0,VALID,90.3996,VALID,-0.20377,VALID,18.15,VALID,122,VALID,1.3209,
2006-04-17, 00:10:00,VALID,915.694,VALID,0,VALID,89.3722,VALID,-0.135847,VALID,18.949,VALID,113,VALID,1.23217,
2006-04-17, 00:11:00,VALID,915.695,VALID,0,VALID,89.8796,VALID,-0.169808,VALID,18.6772,VALID,113,VALID,0.640278,
2006-04-17, 00:12:00,VALID,915.705,VALID,0,VALID,90.6158,VALID,-0.135847,VALID,18.5069,VALID,125,VALID,0.867188,
2006-04-17, 00:13:00,VALID,915.713,VALID,0,VALID,91.3521,VALID,-0.220751,VALID,19.3219,VALID,128,VALID,1.15285,
2006-04-17, 00:14:00,VALID,915.703,VALID,0,VALID,91.6039,VALID,-0.20377,VALID,18.8013,VALID,127,VALID,1.40911,
2006-04-17, 00:15:00,VALID,915.718,VALID,0,VALID,90.6972,VALID,-0.152827,VALID,19.2664,VALID,115,VALID,1.78888,
2006-04-17, 00:16:00,VALID,915.724,VALID,0,VALID,90.7697,VALID,-0.152827,VALID,19.5506,VALID,120,VALID,1.58784,
2006-04-17, 00:17:00,VALID,915.735,VALID,0,VALID,91.0647,VALID,-0.135847,VALID,18.8275,VALID,121,VALID,1.30382,
2006-04-17, 00:18:00,VALID,915.75,VALID,0,VALID,91.6992,VALID,-0.169808,VALID,18.552,VALID,123,VALID,1.25908,
2006-04-17, 00:19:00,VALID,915.761,VALID,0,VALID,93.0649,VALID,-0.169808,VALID,19.2953,VALID,123,VALID,1.06975,
2006-04-17, 00:20:00,VALID,915.771,VALID,0,VALID,93.7986,VALID,-0.20377,VALID,18.6382,VALID,123,VALID,1.2864,
2006-04-17, 00:21:00,VALID,915.784,VALID,0,VALID,94.3276,VALID,-0.186789,VALID,19.4783,VALID,123,VALID,1.47899,
2006-04-17, 00:22:00,VALID,915.792,VALID,0,VALID,94.4255,VALID,-0.152827,VALID,19.0289,VALID,124,VALID,1.50373,
2006-04-17, 00:23:00,VALID,915.815,VALID,0,VALID,94.5057,VALID,-0.169808,VALID,18.8518,VALID,125,VALID,1.59829,
2006-04-17, 00:24:00,VALID,915.831,VALID,0,VALID,94.5413,VALID,-0.135847,VALID,18.9395,VALID,121,VALID,1.46166,
2006-04-17, 00:25:00,VALID,915.844,VALID,0,VALID,94.484,VALID,-0.271693,VALID,18.265,VALID,127,VALID,1.26753,
2006-04-17, 00:26:00,VALID,915.868,VALID,0,VALID,94.1089,VALID,-0.254712,VALID,19.0136,VALID,122,VALID,1.83817,
2006-04-17, 00:27:00,VALID,915.88,VALID,0,VALID,93.6931,VALID,-0.20377,VALID,18.3253,VALID,123,VALID,1.98692,
2006-04-17, 00:28:00,VALID,915.926,VALID,0,VALID,93.7745,VALID,-0.220751,VALID,18.367,VALID,127,VALID,1.76836,
2006-04-17, 00:29:00,VALID,915.956,VALID,0,VALID,93.9665,VALID,-0.237732,VALID,18.4706,VALID,128,VALID,1.69931,
2006-04-17, 00:30:00,VALID,915.982,VALID,0,VALID,94.0364,VALID,-0.288674,VALID,18.9448,VALID,127,VALID,2.03398,
2006-04-17, 00:31:00,VALID,916.009,VALID,0,VALID,93.9589,VALID,-0.271693,VALID,18.7476,VALID,132,VALID,1.68694,
2006-04-17, 00:32:00,VALID,916.047,VALID,0,VALID,94.1649,VALID,-0.118866,VALID,19.4141,VALID,127,VALID,1.7761,
2006-04-17, 00:33:00,VALID,916.076,VALID,0,VALID,94.0606,VALID,-0.20377,VALID,18.0489,VALID,130,VALID,1.81465,
2006-04-17, 00:34:00,VALID,916.102,VALID,0,VALID,93.5609,VALID,-0.186789,VALID,18.4589,VALID,130,VALID,1.62444,
2006-04-17, 00:35:00,VALID,916.134,VALID,0,VALID,93.3294,VALID,-0.152827,VALID,18.6934,VALID,128,VALID,1.41947,
2006-04-17, 00:36:00,VALID,916.17,VALID,0,VALID,92.892,VALID,-0.169808,VALID,18.7537,VALID,128,VALID,1.64316,
2006-04-17, 00:37:00,VALID,916.188,VALID,0,VALID,92.5372,VALID,-0.152827,VALID,18.303,VALID,124,VALID,1.40039,
2006-04-17, 00:38:00,VALID,916.206,VALID,0,VALID,92.1837,VALID,-0.169808,VALID,19.4339,VALID,126,VALID,1.33479,
2006-04-17, 00:39:00,VALID,916.231,VALID,0,VALID,91.6064,VALID,-0.254712,VALID,18.5686,VALID,126,VALID,1.4702,
2006-04-17, 00:40:00,VALID,916.241,VALID,0,VALID,91.174,VALID,-0.271693,VALID,19.2071,VALID,127,VALID,1.5199,
2006-04-17, 00:41:00,VALID,916.259,VALID,0,VALID,90.7252,VALID,-0.237732,VALID,19.576,VALID,125,VALID,1.57067,
2006-04-17, 00:42:01,VALID,916.268,VALID,0,VALID,90.4836,VALID,-0.271693,VALID,18.5187,VALID,121,VALID,1.7885,
2006-04-17, 00:43:00,VALID,916.274,VALID,0,VALID,90.4187,VALID,-0.271693,VALID,18.7802,VALID,124,VALID,1.5,
2006-04-17, 00:44:00,VALID,916.285,VALID,0,VALID,90.3183,VALID,-0.271693,VALID,19.2741,VALID,128,VALID,1.50019,
2006-04-17, 00:45:01,VALID,916.294,VALID,0,VALID,90.434,VALID,-0.186789,VALID,18.6949,VALID,125,VALID,1.37538,
2006-04-17, 00:46:01,VALID,916.308,VALID,0,VALID,90.6934,VALID,-0.135847,VALID,18.8621,VALID,125,VALID,1.3018,
2006-04-17, 00:47:00,VALID,916.301,VALID,0,VALID,91.0698,VALID,-0.135847,VALID,19.1294,VALID,124,VALID,1.46236,
2006-04-17, 00:48:00,VALID,916.309,VALID,0,VALID,90.9846,VALID,-0.152827,VALID,18.1548,VALID,120,VALID,1.6701,
2006-04-17, 00:49:00,VALID,916.312,VALID,0,VALID,90.8129,VALID,-0.118866,VALID,18.7342,VALID,121,VALID,1.69062,
2006-04-17, 00:50:00,VALID,916.322,VALID,0,VALID,90.7671,VALID,-0.135847,VALID,19.3755,VALID,120,VALID,1.68483,
2006-04-17, 00:51:00,VALID,916.338,VALID,0,VALID,90.9833,VALID,-0.135847,VALID,18.9771,VALID,114,VALID,1.59394,
2006-04-17, 00:52:01,VALID,916.35,VALID,0,VALID,91.3063,VALID,-0.135847,VALID,18.6082,VALID,119,VALID,1.71946,
2006-04-17, 00:53:00,VALID,916.377,VALID,0,VALID,91.6547,VALID,-0.237732,VALID,19.1392,VALID,119,VALID,1.95219,
2006-04-17, 00:54:00,VALID,916.406,VALID,0,VALID,91.656,VALID,-0.220751,VALID,18.6306,VALID,120,VALID,2.01448,
2006-04-17, 00:55:01,VALID,916.424,VALID,0,VALID,91.6102,VALID,-0.254712,VALID,19.3261,VALID,123,VALID,1.63281,
2006-04-17, 00:56:00,VALID,916.448,VALID,0,VALID,91.319,VALID,-0.20377,VALID,19.0319,VALID,123,VALID,1.79954,
2006-04-17, 00:57:01,VALID,916.47,VALID,0,VALID,90.9019,VALID,-0.20377,VALID,18.8883,VALID,125,VALID,1.66164,
2006-04-17, 00:58:00,VALID,916.491,VALID,0,VALID,90.4658,VALID,-0.254712,VALID,17.9422,VALID,128,VALID,1.63652,
2006-04-17, 00:59:01,VALID,916.51,VALID,0,VALID,89.9864,VALID,-0.220751,VALID,18.7217,VALID,127,VALID,1.60733,
2006-04-17, 01:00:00,VALID,916.528,VALID,0,VALID,89.6659,VALID,-0.20377,VALID,19.0796,VALID,127,VALID,1.51829,
2006-04-17, 01:01:00,VALID,916.533,VALID,0,VALID,88.8254,VALID,-0.20377,VALID,18.6501,VALID,124,VALID,1.6369,
2006-04-17, 01:02:00,VALID,916.536,VALID,0,VALID,88.3244,VALID,-0.220751,VALID,18.7542,VALID,125,VALID,1.48597,
2006-04-17, 01:03:00,VALID,916.547,VALID,0,VALID,87.9327,VALID,-0.20377,VALID,19.3744,VALID,126,VALID,1.42378,
2006-04-17, 01:04:00,VALID,916.552,VALID,0,VALID,87.4381,VALID,-0.20377,VALID,18.8602,VALID,123,VALID,1.49272,
2006-04-17, 01:05:01,VALID,916.565,VALID,0,VALID,87.3923,VALID,-0.169808,VALID,19.1463,VALID,117,VALID,1.18304,
2006-04-17, 01:06:00,VALID,916.576,VALID,0,VALID,87.1939,VALID,-0.20377,VALID,19.6904,VALID,110,VALID,1.2136,
2006-04-17, 01:07:00,VALID,916.576,VALID,0,VALID,87.3643,VALID,-0.20377,VALID,18.2613,VALID,100,VALID,0.907552,
2006-04-17, 01:08:00,VALID,916.586,VALID,0,VALID,87.5322,VALID,-0.20377,VALID,18.9385,VALID,90,VALID,0.919331,
2006-04-17, 01:09:01,VALID,916.595,VALID,0,VALID,87.7712,VALID,-0.20377,VALID,18.2729,VALID,96,VALID,0.926829,
2006-04-17, 01:10:00,VALID,916.596,VALID,0,VALID,87.8145,VALID,-0.20377,VALID,19.3872,VALID,98,VALID,1.03634,
2006-04-17, 01:11:00,VALID,916.604,VALID,0,VALID,88.1082,VALID,-0.20377,VALID,18.6566,VALID,104,VALID,0.958651,
2006-04-17, 01:12:00,VALID,916.605,VALID,0,VALID,88.14,VALID,-0.237732,VALID,19.5842,VALID,106,VALID,1.04785,
2006-04-17, 01:13:01,VALID,916.61,VALID,0,VALID,87.9213,VALID,-0.20377,VALID,19.6839,VALID,107,VALID,1.06925,
2006-04-17, 01:14:00,VALID,916.602,VALID,0,VALID,87.9976,VALID,-0.20377,VALID,19.4932,VALID,121,VALID,1.07706,
2006-04-17, 01:15:01,VALID,916.603,VALID,0,VALID,87.8615,VALID,-0.20377,VALID,19.3989,VALID,114,VALID,1.25558,
2006-04-17, 01:16:00,VALID,916.609,VALID,0,VALID,88.1184,VALID,-0.20377,VALID,19.3752,VALID,110,VALID,0.931055,
2006-04-17, 01:17:00,VALID,916.615,VALID,0,VALID,87.9938,VALID,-0.20377,VALID,18.8599,VALID,115,VALID,1.14317,
2006-04-17, 01:18:01,VALID,916.631,VALID,0,VALID,87.8132,VALID,-0.220751,VALID,18.2519,VALID,92,VALID,1.13945,
2006-04-17, 01:19:01,VALID,916.647,VALID,0,VALID,88.079,VALID,-0.20377,VALID,19.8128,VALID,93,VALID,0.731771,
2006-04-17, 01:20:01,VALID,916.652,VALID,0,VALID,88.36,VALID,-0.20377,VALID,18.3552,VALID,90,VALID,0.669965,
2006-04-17, 01:21:01,VALID,916.649,VALID,0,VALID,88.3651,VALID,-0.20377,VALID,18.7088,VALID,85,VALID,0.630022,
2006-04-17, 01:22:00,VALID,916.665,VALID,0,VALID,88.0713,VALID,-0.20377,VALID,18.9157,VALID,105,VALID,0.716933,
2006-04-17, 01:23:00,VALID,916.675,VALID,0,VALID,88.1197,VALID,-0.20377,VALID,18.5924,VALID,105,VALID,0.623476,
2006-04-17, 01:24:00,VALID,916.686,VALID,0,VALID,88.1616,VALID,-0.20377,VALID,18.7023,VALID,87,VALID,0.621773,
2006-04-17, 01:25:00,VALID,916.688,VALID,0,VALID,87.7712,VALID,-0.20377,VALID,19.2853,VALID,87,VALID,0.568714,
2006-04-17, 01:26:01,VALID,916.698,VALID,0,VALID,87.5093,VALID,-0.20377,VALID,19.3634,VALID,99,VALID,0.914249,
2006-04-17, 01:27:00,VALID,916.72,VALID,0,VALID,87.892,VALID,-0.186789,VALID,18.3193,VALID,111,VALID,0.823289,
2006-04-17, 01:28:00,VALID,916.729,VALID,0,VALID,88.5787,VALID,-0.20377,VALID,18.7451,VALID,123,VALID,0.607279,
2006-04-17, 01:29:00,VALID,916.745,VALID,0,VALID,88.7872,VALID,-0.220751,VALID,19.0712,VALID,128,VALID,0.829492,
2006-04-17, 01:30:00,VALID,916.767,VALID,0,VALID,88.9551,VALID,-0.186789,VALID,19.7813,VALID,126,VALID,0.667791,
2006-04-17, 01:31:00,VALID,916.792,VALID,0,VALID,88.8546,VALID,-0.220751,VALID,18.7255,VALID,126,VALID,0.797743,
2006-04-17, 01:32:01,VALID,916.811,VALID,0,VALID,88.8991,VALID,-0.254712,VALID,19.2075,VALID,127,VALID,0.636328,
2006-04-17, 01:33:00,VALID,916.844,VALID,0,VALID,89.2819,VALID,-0.220751,VALID,19.0923,VALID,129,VALID,0.569922,
2006-04-17, 01:34:01,VALID,916.863,VALID,0,VALID,89.7905,VALID,-0.237732,VALID,18.5798,VALID,131,VALID,0.689024,
2006-04-17, 01:35:00,VALID,916.898,VALID,0,VALID,89.9202,VALID,-0.169808,VALID,18.1732,VALID,124,VALID,1.01847,
2006-04-17, 01:36:01,VALID,916.909,VALID,0,VALID,90.0347,VALID,-0.20377,VALID,19.043,VALID,120,VALID,0.834339,
2006-04-17, 01:37:00,VALID,916.93,VALID,0,VALID,90.3615,VALID,-0.152827,VALID,19.4993,VALID,126,VALID,0.920673,
2006-04-17, 01:38:00,VALID,916.93,VALID,0,VALID,90.3386,VALID,-0.220751,VALID,18.6536,VALID,131,VALID,0.979611,
2006-04-17, 01:39:01,VALID,916.94,VALID,0,VALID,90.3221,VALID,-0.237732,VALID,19.358,VALID,126,VALID,0.828506,
2006-04-17, 01:40:00,VALID,916.922,VALID,0,VALID,90.1911,VALID,-0.20377,VALID,18.7596,VALID,128,VALID,0.832564,
2006-04-17, 01:41:00,VALID,916.928,VALID,0,VALID,90.0067,VALID,-0.152827,VALID,19.1384,VALID,110,VALID,0.87609,
2006-04-17, 01:42:00,VALID,916.919,VALID,0,VALID,89.2298,VALID,-0.186789,VALID,18.8748,VALID,94,VALID,1.04111,
2006-04-17, 01:43:00,VALID,916.93,VALID,0,VALID,89.5642,VALID,-0.169808,VALID,18.6104,VALID,79,VALID,0.881722,
2006-04-17, 01:44:00,VALID,916.935,VALID,0,VALID,89.226,VALID,-0.169808,VALID,19.0958,VALID,76,VALID,0.670573,
2006-04-17, 01:45:00,VALID,916.942,VALID,0,VALID,89.4421,VALID,-0.169808,VALID,19.5188,VALID,83,VALID,0.703125,
2006-04-17, 01:46:01,VALID,916.936,VALID,0,VALID,89.5413,VALID,-0.20377,VALID,18.3974,VALID,76,VALID,0.635719,
2006-04-17, 01:47:00,VALID,916.941,VALID,0,VALID,89.3391,VALID,-0.20377,VALID,18.7139,VALID,72,VALID,0.642299,
2006-04-17, 01:48:00,VALID,916.962,VALID,0,VALID,89.5858,VALID,-0.20377,VALID,18.8886,VALID,66,VALID,0.685352,
2006-04-17, 01:49:01,VALID,916.971,VALID,0,VALID,89.8986,VALID,-0.20377,VALID,19.2887,VALID,62,VALID,0.729288,
2006-04-17, 01:50:01,VALID,916.974,VALID,0,VALID,89.6469,VALID,-0.20377,VALID,18.9134,VALID,60,VALID,0.786156,
2006-04-17, 01:51:00,VALID,916.993,VALID,0,VALID,89.4879,VALID,-0.220751,VALID,18.8191,VALID,63,VALID,0.685683,
2006-04-17, 01:52:00,VALID,916.996,VALID,0,VALID,89.5731,VALID,-0.237732,VALID,18.7751,VALID,76,VALID,0.982279,
2006-04-17, 01:53:00,VALID,916.997,VALID,0,VALID,89.7181,VALID,-0.20377,VALID,18.9279,VALID,73,VALID,0.978237,
2006-04-17, 01:54:01,VALID,916.988,VALID,0,VALID,89.6888,VALID,-0.20377,VALID,18.9758,VALID,75,VALID,0.952567,
2006-04-17, 01:55:01,VALID,916.974,VALID,0,VALID,89.905,VALID,-0.220751,VALID,19.2695,VALID,79,VALID,0.855755,
2006-04-17, 01:56:00,VALID,916.966,VALID,0,VALID,90.2941,VALID,-0.20377,VALID,18.8705,VALID,77,VALID,0.923328,
2006-04-17, 01:57:00,VALID,916.971,VALID,0,VALID,90.6247,VALID,-0.220751,VALID,18.2793,VALID,75,VALID,0.86849,
2006-04-17, 01:58:00,VALID,916.963,VALID,0,VALID,90.8167,VALID,-0.20377,VALID,18.4451,VALID,75,VALID,0.85119,
2006-04-17, 01:59:00,VALID,916.958,VALID,0,VALID,91.1944,VALID,-0.271693,VALID,18.386,VALID,75,VALID,0.941034,
2006-04-17, 02:00:01,VALID,916.958,VALID,0,VALID,91.2694,VALID,-0.220751,VALID,18.393,VALID,75,VALID,0.986861,
2006-04-17, 02:01:00,VALID,916.979,VALID,0,VALID,91.4068,VALID,-0.152827,VALID,18.4159,VALID,75,VALID,0.995458,
2006-04-17, 02:02:01,VALID,917.007,VALID,0,VALID,91.3979,VALID,-0.237732,VALID,18.9399,VALID,75,VALID,0.879836,
2006-04-17, 02:03:00,VALID,917.017,VALID,0,VALID,91.6725,VALID,-0.237732,VALID,18.2752,VALID,74,VALID,0.91806,
2006-04-17, 02:04:01,VALID,917.029,VALID,0,VALID,91.5441,VALID,-0.220751,VALID,18.7073,VALID,78,VALID,1.13844,
2006-04-17, 02:05:01,VALID,917.046,VALID,0,VALID,91.6013,VALID,-0.237732,VALID,18.8938,VALID,93,VALID,1.05487,
2006-04-17, 02:06:00,VALID,917.078,VALID,0,VALID,91.4996,VALID,-0.20377,VALID,18.4966,VALID,91,VALID,1.19627,
2006-04-17, 02:07:00,VALID,917.111,VALID,0,VALID,91.6331,VALID,-0.220751,VALID,18.7015,VALID,89,VALID,0.880526,
2006-04-17, 02:08:01,VALID,917.126,VALID,0,VALID,91.4602,VALID,-0.20377,VALID,18.9083,VALID,92,VALID,1.05313,
2006-04-17, 02:09:00,VALID,917.158,VALID,0,VALID,91.0456,VALID,-0.20377,VALID,18.8086,VALID,98,VALID,1.13039,
2006-04-17, 02:10:00,VALID,917.17,VALID,0,VALID,90.8307,VALID,-0.220751,VALID,18.6497,VALID,96,VALID,1.17042,
2006-04-17, 02:11:01,VALID,917.198,VALID,0,VALID,90.5293,VALID,-0.20377,VALID,17.9667,VALID,89,VALID,0.956214,
2006-04-17, 02:12:01,VALID,917.215,VALID,0,VALID,90.2369,VALID,-0.220751,VALID,18.175,VALID,88,VALID,1.16749,
2006-04-17, 02:13:01,VALID,917.226,VALID,0,VALID,90.2865,VALID,-0.237732,VALID,18.7768,VALID,74,VALID,1.17272,
2006-04-17, 02:14:00,VALID,917.236,VALID,0,VALID,90.1288,VALID,-0.20377,VALID,18.9162,VALID,64,VALID,1.26079,
2006-04-17, 02:15:00,VALID,917.243,VALID,0,VALID,90.1441,VALID,-0.20377,VALID,18.71,VALID,59,VALID,0.882102,
2006-04-17, 02:16:01,VALID,917.259,VALID,0,VALID,89.9584,VALID,-0.20377,VALID,19.2323,VALID,69,VALID,0.818132,
2006-04-17, 02:17:01,VALID,917.265,VALID,0,VALID,90.0894,VALID,-0.220751,VALID,18.8035,VALID,77,VALID,0.786328,
2006-04-17, 02:18:01,VALID,917.268,VALID,0,VALID,90.3246,VALID,-0.220751,VALID,18.6746,VALID,70,VALID,0.919695,
2006-04-17, 02:19:01,VALID,917.272,VALID,0,VALID,90.4887,VALID,-0.20377,VALID,18.8054,VALID,51,VALID,1.1962,
2006-04-17, 02:20:01,VALID,917.287,VALID,0,VALID,90.7023,VALID,-0.237732,VALID,18.6521,VALID,73,VALID,0.857469,
2006-04-17, 02:21:01,VALID,917.302,VALID,0,VALID,90.6819,VALID,-0.237732,VALID,18.9236,VALID,81,VALID,0.757267,
2006-04-17, 02:22:01,VALID,917.314,VALID,0,VALID,90.8053,VALID,-0.186789,VALID,18.2045,VALID,81,VALID,0.736662,
2006-04-17, 02:23:01,VALID,917.344,VALID,0,VALID,91.024,VALID,-0.135847,VALID,19.3096,VALID,90,VALID,0.889266,
2006-04-17, 02:24:01,VALID,917.351,VALID,0,VALID,90.9655,VALID,-0.152827,VALID,18.3593,VALID,119,VALID,0.968576,
2006-04-17, 02:25:00,VALID,917.361,VALID,0,VALID,91.0965,VALID,-0.152827,VALID,18.291,VALID,121,VALID,1.10938,
2006-04-17, 02:26:00,VALID,917.38,VALID,0,VALID,91.155,VALID,-0.152827,VALID,18.8215,VALID,115,VALID,1.14156,
2006-04-17, 02:27:01,VALID,917.392,VALID,0,VALID,91.1257,VALID,-0.254712,VALID,18.305,VALID,108,VALID,1.11151,
2006-04-17, 02:28:01,VALID,917.398,VALID,0,VALID,91.0456,VALID,-0.237732,VALID,18.9887,VALID,101,VALID,0.919271,
2006-04-17, 02:29:01,VALID,917.407,VALID,0,VALID,90.8739,VALID,-0.271693,VALID,18.1143,VALID,98,VALID,1.00667,
2006-04-17, 02:30:01,VALID,917.406,VALID,0,VALID,90.6896,VALID,-0.237732,VALID,18.4336,VALID,100,VALID,1.06432,
2006-04-17, 02:31:01,VALID,917.426,VALID,0,VALID,90.3539,VALID,-0.152827,VALID,18.3703,VALID,81,VALID,1.12793,
2006-04-17, 02:32:01,VALID,917.428,VALID,0,VALID,90.1301,VALID,-0.152827,VALID,18.6589,VALID,78,VALID,1.01615,
2006-04-17, 02:33:01,VALID,917.444,VALID,0,VALID,90.7201,VALID,-0.135847,VALID,18.0646,VALID,73,VALID,0.801461,
2006-04-17, 02:34:01,VALID,917.445,VALID,0,VALID,91.0685,VALID,-0.152827,VALID,19.1351,VALID,73,VALID,0.741071,
2006-04-17, 02:35:00,VALID,917.456,VALID,0,VALID,91.2999,VALID,-0.152827,VALID,18.9658,VALID,73,VALID,0.896151,
2006-04-17, 02:36:01,VALID,917.462,VALID,0,VALID,90.6959,VALID,-0.169808,VALID,18.6994,VALID,73,VALID,0.919207,
2006-04-17, 02:37:01,VALID,917.467,VALID,0,VALID,90.3818,VALID,-0.152827,VALID,19.0663,VALID,76,VALID,0.906605,
2006-04-17, 02:38:01,VALID,917.471,VALID,0,VALID,90.0919,VALID,-0.20377,VALID,17.7303,VALID,101,VALID,0.787609,
2006-04-17, 02:39:01,VALID,917.462,VALID,0,VALID,90.0194,VALID,-0.169808,VALID,18.4814,VALID,113,VALID,0.817472,
2006-04-17, 02:40:01,VALID,917.475,VALID,0,VALID,89.8198,VALID,-0.305655,VALID,18.5851,VALID,113,VALID,0.907522,
2006-04-17, 02:41:01,VALID,917.479,VALID,0,VALID,90.0296,VALID,-0.254712,VALID,19.0557,VALID,113,VALID,0.875558,
2006-04-17, 02:42:01,VALID,917.488,VALID,0,VALID,90.1975,VALID,-0.186789,VALID,18.392,VALID,113,VALID,0.904978,
2006-04-17, 02:43:01,VALID,917.481,VALID,0,VALID,90.4848,VALID,-0.237732,VALID,18.8529,VALID,122,VALID,1.05918,
2006-04-17, 02:44:01,VALID,917.483,VALID,0,VALID,90.4378,VALID,-0.254712,VALID,18.3573,VALID,124,VALID,1.09598,
2006-04-17, 02:45:01,VALID,917.485,VALID,0,VALID,90.42,VALID,-0.169808,VALID,18.4011,VALID,124,VALID,1.0863,
2006-04-17, 02:46:01,VALID,917.494,VALID,0,VALID,90.4047,VALID,-0.186789,VALID,19.7417,VALID,124,VALID,0.947545,
2006-04-17, 02:47:01,VALID,917.502,VALID,0,VALID,90.4569,VALID,-0.20377,VALID,19.3243,VALID,124,VALID,0.808308,
2006-04-17, 02:48:01,VALID,917.501,VALID,0,VALID,90.6412,VALID,-0.20377,VALID,18.6275,VALID,127,VALID,0.691311,
2006-04-17, 02:49:01,VALID,917.513,VALID,0,VALID,90.5675,VALID,-0.220751,VALID,18.9931,VALID,129,VALID,0.746804,
2006-04-17, 02:50:00,VALID,917.53,VALID,0,VALID,90.8638,VALID,-0.20377,VALID,18.2768,VALID,135,VALID,0.488567,
2006-04-17, 02:51:01,VALID,917.535,VALID,0,VALID,90.9795,VALID,-0.20377,VALID,18.8584,VALID,130,VALID,0.595312,
2006-04-17, 02:52:01,VALID,917.549,VALID,0,VALID,90.9731,VALID,-0.220751,VALID,18.3424,VALID,128,VALID,0.594551,
2006-04-17, 02:53:01,VALID,917.565,VALID,0,VALID,90.7239,VALID,-0.237732,VALID,18.4932,VALID,135,VALID,0.704649,
2006-04-17, 02:54:01,VALID,917.572,VALID,0,VALID,90.6387,VALID,-0.220751,VALID,18.868,VALID,140,VALID,0.886541,
2006-04-17, 02:55:01,VALID,917.59,VALID,0,VALID,90.4352,VALID,-0.20377,VALID,18.1802,VALID,137,VALID,0.98544,
2006-04-17, 02:56:01,VALID,917.589,VALID,0,VALID,90.2903,VALID,-0.20377,VALID,18.1946,VALID,139,VALID,0.901228,
2006-04-17, 02:57:01,VALID,917.601,VALID,0,VALID,90.3183,VALID,-0.237732,VALID,18.3511,VALID,141,VALID,0.987351,
2006-04-17, 02:58:01,VALID,917.608,VALID,0,VALID,90.4302,VALID,-0.220751,VALID,18.2231,VALID,131,VALID,0.858994,
2006-04-17, 02:59:01,VALID,917.618,VALID,0,VALID,90.4352,VALID,-0.220751,VALID,18.8967,VALID,134,VALID,0.967685,
2006-04-17, 03:00:01,VALID,917.626,VALID,0,VALID,90.3933,VALID,-0.237732,VALID,18.7507,VALID,127,VALID,1.00291,
2006-04-17, 03:01:01,VALID,917.628,VALID,0,VALID,90.5077,VALID,-0.237732,VALID,18.5986,VALID,125,VALID,1.04334,
2006-04-17, 03:02:01,VALID,917.613,VALID,0,VALID,90.5535,VALID,-0.220751,VALID,18.8544,VALID,124,VALID,1.0218,
2006-04-17, 03:03:01,VALID,917.617,VALID,0,VALID,90.4276,VALID,-0.20377,VALID,18.572,VALID,136,VALID,0.830903,
2006-04-17, 03:04:01,VALID,917.611,VALID,0,VALID,90.4251,VALID,-0.220751,VALID,18.4406,VALID,135,VALID,0.557528,
2006-04-17, 03:05:01,VALID,917.597,VALID,0,VALID,90.4772,VALID,-0.220751,VALID,19.9905,VALID,134,VALID,0.584579,
2006-04-17, 03:06:01,VALID,917.588,VALID,0,VALID,90.5611,VALID,-0.220751,VALID,18.6543,VALID,134,VALID,0.41915,
2006-04-17, 03:07:01,VALID,917.564,VALID,0,VALID,90.5713,VALID,-0.20377,VALID,19.2734,VALID,134,VALID,0.510231,
2006-04-17, 03:08:01,VALID,917.56,VALID,0,VALID,90.729,VALID,-0.220751,VALID,18.8343,VALID,134,VALID,0.40625,
2006-04-17, 03:09:00,VALID,917.549,VALID,0,VALID,90.715,VALID,-0.135847,VALID,18.5255,VALID,137,VALID,0.470274,
2006-04-17, 03:10:00,VALID,917.53,VALID,0,VALID,90.846,VALID,-0.254712,VALID,18.5396,VALID,137,VALID,0.461133,
2006-04-17, 03:11:00,VALID,917.517,VALID,0,VALID,90.654,VALID,-0.220751,VALID,18.137,VALID,137,VALID,0.701322,
2006-04-17, 03:12:00,VALID,917.508,VALID,0,VALID,90.7417,VALID,-0.220751,VALID,19.3978,VALID,132,VALID,0.703869,
2006-04-17, 03:13:00,VALID,917.515,VALID,0,VALID,90.7061,VALID,-0.254712,VALID,18.6451,VALID,123,VALID,0.756811,
2006-04-17, 03:14:00,VALID,917.51,VALID,0,VALID,90.3755,VALID,-0.220751,VALID,18.7466,VALID,123,VALID,0.889423,
2006-04-17, 03:15:00,VALID,917.526,VALID,0,VALID,90.35,VALID,-0.220751,VALID,19.1407,VALID,123,VALID,0.900213,
2006-04-17, 03:16:00,VALID,917.54,VALID,0,VALID,90.453,VALID,-0.20377,VALID,19.0882,VALID,124,VALID,0.978693,
2006-04-17, 03:17:00,VALID,917.561,VALID,0,VALID,90.3475,VALID,-0.152827,VALID,18.9944,VALID,124,VALID,0.887607,
2006-04-17, 03:18:00,VALID,917.569,VALID,0,VALID,90.3284,VALID,-0.254712,VALID,19.1422,VALID,122,VALID,0.942107,
2006-04-17, 03:19:00,VALID,917.58,VALID,0,VALID,90.5319,VALID,-0.152827,VALID,19.0126,VALID,123,VALID,0.876215,
2006-04-17, 03:20:00,VALID,917.606,VALID,0,VALID,90.6972,VALID,-0.237732,VALID,18.8722,VALID,125,VALID,0.833394,
2006-04-17, 03:21:00,VALID,917.629,VALID,0,VALID,90.9045,VALID,-0.20377,VALID,18.9401,VALID,126,VALID,0.794444,
2006-04-17, 03:22:00,VALID,917.636,VALID,0,VALID,91.1003,VALID,-0.237732,VALID,18.8936,VALID,122,VALID,0.93418,
2006-04-17, 03:23:00,VALID,917.661,VALID,0,VALID,91.2592,VALID,-0.288674,VALID,18.3838,VALID,121,VALID,0.904978,
2006-04-17, 03:24:00,VALID,917.68,VALID,0,VALID,91.3775,VALID,-0.271693,VALID,18.6781,VALID,129,VALID,1.02958,
2006-04-17, 03:25:00,VALID,917.695,VALID,0,VALID,91.4385,VALID,-0.254712,VALID,17.3537,VALID,146,VALID,1.01348,
2006-04-17, 03:26:00,VALID,917.697,VALID,0,VALID,91.3584,VALID,-0.20377,VALID,18.6994,VALID,145,VALID,1.02271,
2006-04-17, 03:27:00,VALID,917.707,VALID,0,VALID,91.7132,VALID,-0.237732,VALID,18.4931,VALID,153,VALID,0.782584,
2006-04-17, 03:28:00,VALID,917.701,VALID,0,VALID,92.4317,VALID,-0.254712,VALID,18.8558,VALID,154,VALID,0.980078,
2006-04-17, 03:29:00,VALID,917.702,VALID,0,VALID,93.2722,VALID,-0.237732,VALID,18.8349,VALID,147,VALID,1.11937,
2006-04-17, 03:30:00,VALID,917.698,VALID,0,VALID,93.7656,VALID,-0.271693,VALID,17.7227,VALID,146,VALID,0.914807,
2006-04-17, 03:31:00,VALID,917.704,VALID,0,VALID,94.1572,VALID,-0.254712,VALID,18.1495,VALID,146,VALID,0.947856,
2006-04-17, 03:32:00,VALID,917.702,VALID,0,VALID,94.4497,VALID,-0.584904,VALID,18.3943,VALID,145,VALID,0.974746,